sat.trackr.live / text

‹ back to catalog

ICEYE-X64

NORAD 67373 · 2026-004L

PAYLOAD ACTIVE UNKNOWN

§ Identity

Operator
Country
FIN
Launch date
2026-01-11
Launch site
AFWTR
Launch vehicle
Mass (kg)
RCS (m²)

External: N2YO · Heavens-Above · Gunter

§ Orbital elements

Epoch: 2026-05-24T23:44:35.018880Z

Period
96.78 min
Inclination
97.8015°
Eccentricity
0.0005208
Mean motion
14.87854711 rev/d
Perigee alt
601.0 km
Apogee alt
608.3 km
Semi-major
6,982.8 km
B*
1.1474e-4
RAAN
143.9341°
Arg perigee
197.7232°
Mean anomaly
162.3803°
Rev number
1,984

§ Raw data

ICEYE-X641 67373U 26004L   26144.98929420  .00000995  00000+0  11474-3 0  99902 67373  97.8015 143.9341 0005208 197.7232 162.3803 14.87854711 19840

JSON: /api/v1/satellites/67373 · /tle

For live sub-satellite position, see the globe view (requires WebGL).

§ Visibility from observer

Set your observer location to see the next 7 days of passes ≥ 10°. The values pass through the URL so the page stays shareable.

No JS? Fill the form by hand. The geolocation button needs JavaScript.